Location: ??????
(55.6361°N, 38.0803°E)
Time: 01:31:10
(UTC+00:00)

CZ-4B R/B - Pass Details

Date: 30 March 2020
Orbit: 391 x 465 km, 97.6° (Epoch: 31 May)

Event Time Altitude Azimuth Distance (km) Brightness Sun altitude
Exits shadow 01:38:39 10° 196° (SSW) 1,630 3.8 -12.2°
Reaches altitude 10° 01:38:41 10° 196° (SSW) 1,615 3.8 -12.2°
Maximum altitude 01:41:52 34° 263° (W) 801 2.1 -11.8°
Drops below altitude 10° 01:45:07 10° 329° (NNW) 1,639 4.2 -11.4°
Sets 01:47:19 0° 339° (NNW) 2,521 5.3 -11.1°
